Weather History for Laramie, WY

Change the Weather History Date:

Wednesday, December 19, 2012

  Actual Average Record
Temperature  
Mean Temperature 2 °F 21 °F  
Max Temperature 15 °F 32 °F 49 °F (1966)
Min Temperature -11 °F 10 °F -11 °F (2012)
Degree Days  
Heating Degree Days 63 44  
Month to date heating degree days 655 828  
Since 1 July heating degree days 2522 3140  
Cooling Degree Days 0 0  
Month to date cooling degree days 0 0  
Year to date cooling degree days 211 67  
Moisture  
Dew Point 4 °F    
Average Humidity 79    
Maximum Humidity 96    
Minimum Humidity 62    
Precipitation  
Precipitation 0.03 in 0.01 in 0.16 in (1951)
Month to date precipitation 0.10 0.21  
Year to date precipitation 6.16 10.81  
Sea Level Pressure  
Sea Level Pressure 29.87 in    
Wind  
Wind Speed 12 mph (North)    
Max Wind Speed 20 mph    
Max Gust Speed 23 mph    
Visibility 4 miles    
Events Fog , Snow    
T = Trace of Precipitation, MM = Missing Value Source: NWS Daily Summary

Daily Weather History Graph

Daily Weather History Graph

Search for Another Location

Airport:

Trip Planner

Search our weather history database for the weather conditions in past years. The results will help you decide how hot, cold, wet, or windy it might be!

Date:

Astronomy

Dec. 19, 2012 Rise Set
Actual Time 7:24 AM MST 4:35 PM MST
Civil Twilight 6:53 AM MST 5:07 PM MST
Nautical Twilight 6:18 AM MST 5:42 PM MST
Astronomical Twilight 5:44 AM MST 6:15 PM MST
Moon 11:30 AM MST (12/19) No Moon Set
Length of Visible Light 10h 14m
Length of Day
9h 11m
Waxing Crescent, 45% of the Moon is Illuminated
Dec 19
Waxing Crescent
Dec 19
First Quarter
Dec 28
Full
Jan 4
Last Quarter
Jan 11
New

Hourly Weather History & Observations

Time (MST) Temp. Windchill Dew Point Humidity Pressure Visibility Wind Dir Wind Speed Gust Speed Precip Events Conditions
12:02 AM 15.8 °F 3.4 °F 12.2 °F 86% 29.63 in 1.0 mi NNE 10.4 mph - 0.00 in Snow Light Snow
12:53 AM 14.0 °F 0.5 °F 12.0 °F 92% 29.72 in 1.0 mi NNE 11.5 mph - 0.00 in Snow Light Snow
1:20 AM 14.0 °F 2.0 °F 12.2 °F 93% 29.61 in 1.5 mi North 9.2 mph - 0.01 in Snow Light Snow
1:53 AM 14.0 °F -0.8 °F 10.9 °F 88% 29.73 in 1.2 mi North 13.8 mph - 0.01 in Snow Light Snow
2:16 AM 14.0 °F 0.5 °F 10.4 °F 86% 29.61 in 1.0 mi North 11.5 mph - 0.00 in Snow Light Snow
2:53 AM 14.0 °F 1.2 °F 10.9 °F 88% 29.74 in 1.2 mi North 10.4 mph - 0.00 in Snow Light Snow
3:28 AM 14.0 °F 1.2 °F 10.4 °F 86% 29.63 in 1.5 mi NE 10.4 mph - 0.00 in Snow Light Snow
3:41 AM 12.2 °F 0.7 °F 10.4 °F 92% 29.63 in 2.5 mi NE 8.1 mph - 0.00 in Snow Light Snow
3:53 AM 12.9 °F 0.7 °F 10.9 °F 92% 29.75 in 3.0 mi North 9.2 mph - 0.00 in Snow Light Snow
4:05 AM 12.2 °F -1.8 °F 8.6 °F 85% 29.62 in 1.8 mi North 11.5 mph - 0.00 in Snow Light Snow
4:29 AM 12.2 °F -1.0 °F 8.6 °F 85% 29.62 in 1.0 mi NNE 10.4 mph - 0.00 in Snow Light Snow
4:37 AM 12.2 °F 0.7 °F 8.6 °F 85% 29.63 in 0.5 mi NNE 8.1 mph - 0.00 in Fog , Snow Snow
4:41 AM 12.2 °F 1.7 °F 8.6 °F 85% 29.65 in 0.8 mi North 6.9 mph - 0.01 in Snow Light Snow
4:48 AM 12.2 °F -1.8 °F 8.6 °F 85% 29.66 in 1.0 mi North 11.5 mph - 0.01 in Snow Light Snow
4:53 AM 12.0 °F -2.7 °F 9.0 °F 88% 29.79 in 1.0 mi North 12.7 mph - 0.01 in Snow Light Snow
5:12 AM 12.2 °F -1.8 °F 8.6 °F 85% 29.66 in 0.8 mi NNE 11.5 mph - 0.00 in Snow Light Snow
5:23 AM 10.4 °F -3.3 °F 8.6 °F 92% 29.66 in 1.0 mi NNE 10.4 mph - 0.00 in Snow Light Snow
5:53 AM 10.9 °F -5.9 °F 8.1 °F 88% 29.77 in 1.0 mi NE 16.1 mph - 0.00 in Snow Light Snow
6:07 AM 10.4 °F -4.1 °F 8.6 °F 92% 29.64 in 1.2 mi NE 11.5 mph 23.0 mph 0.00 in Snow Light Snow
6:53 AM 10.9 °F -1.8 °F 8.1 °F 88% 29.86 in 1.2 mi NNE 9.2 mph - 0.00 in Snow Light Snow
7:31 AM 10.4 °F -4.1 °F 8.6 °F 92% 29.72 in 1.0 mi North 11.5 mph - 0.00 in Snow Light Snow
7:53 AM 10.9 °F -3.4 °F 8.1 °F 88% 29.89 in 0.8 mi NNE 11.5 mph - 0.00 in Snow Light Snow
8:01 AM 10.4 °F -4.8 °F 6.8 °F 85% 29.71 in 0.8 mi North 12.7 mph 19.6 mph 0.00 in Snow Light Snow
8:21 AM 10.4 °F -4.8 °F 6.8 °F 85% 29.73 in 0.5 mi North 12.7 mph - 0.00 in Fog , Snow Light Snow
8:37 AM 10.4 °F -4.8 °F 6.8 °F 85% 29.75 in 0.8 mi North 12.7 mph - 0.00 in Snow Light Snow
8:53 AM 9.0 °F -6.6 °F 6.1 °F 88% 29.95 in 1.0 mi North 12.7 mph - 0.00 in Snow Light Snow
9:30 AM 10.4 °F -5.4 °F 6.8 °F 85% 29.78 in 2.0 mi North 13.8 mph - 0.00 in Snow Light Snow
9:53 AM 10.0 °F -6.5 °F 6.1 °F 84% 29.97 in 1.8 mi North 15.0 mph - 0.00 in Snow Light Snow
10:31 AM 10.4 °F -4.8 °F 5.0 °F 79% 29.79 in 2.5 mi North 12.7 mph - 0.00 in Snow Light Snow
10:38 AM 10.4 °F -4.1 °F 6.8 °F 85% 29.79 in 3.0 mi North 11.5 mph - 0.00 in Snow Light Snow
10:53 AM 10.0 °F -5.9 °F 6.1 °F 84% 29.99 in 3.0 mi NNW 13.8 mph - 0.00 in Snow Light Snow
11:13 AM 10.4 °F -3.3 °F 5.0 °F 79% 29.80 in 10.0 mi North 10.4 mph - 0.00 in   Overcast
11:53 AM 9.0 °F -5.9 °F 5.0 °F 84% 30.01 in 10.0 mi NNW 11.5 mph - 0.00 in   Partly Cloudy
12:53 PM 10.0 °F -0.9 °F 5.0 °F 80% 30.02 in 10.0 mi NNW 6.9 mph - 0.00 in   Clear
1:53 PM 8.1 °F -4.3 °F 3.9 °F 83% 30.05 in 10.0 mi NW 8.1 mph - N/A   Clear
2:53 PM 8.1 °F -7.0 °F 1.9 °F 76% 30.08 in 10.0 mi NW 11.5 mph - N/A   Clear
3:53 PM 5.0 °F -14.2 °F -6.0 °F 61% 30.12 in 10.0 mi WNW 17.3 mph - N/A   Clear
4:53 PM 3.9 °F -16.1 °F -8.0 °F 58% 30.17 in 10.0 mi WNW 18.4 mph - N/A   Clear
5:53 PM -2.0 °F -23.3 °F -11.9 °F 63% 30.23 in 10.0 mi West 17.3 mph 20.7 mph N/A   Clear
6:53 PM -0.9 °F -16.4 °F -9.9 °F 66% 30.24 in 10.0 mi West 9.2 mph - N/A   Clear
7:53 PM -5.1 °F -24.3 °F -14.1 °F 65% 30.28 in 10.0 mi West 12.7 mph - N/A   Clear
8:53 PM -2.0 °F -19.6 °F -11.9 °F 63% 30.28 in 10.0 mi WSW 11.5 mph - N/A   Clear
9:53 PM -4.0 °F - -13.0 °F 65% 30.30 in 10.0 mi Calm Calm - N/A   Clear
10:53 PM -8.0 °F -26.1 °F -14.1 °F 75% 30.35 in 10.0 mi ESE 10.4 mph - N/A   Clear
11:53 PM -9.0 °F -27.4 °F -14.1 °F 79% 30.38 in 10.0 mi SSE 10.4 mph - N/A   Clear